Lynchburg, VA

11:53 PM EDT on July 24, 2016 (GMT -0400)
Lynchburg Regional-Glenn

Weather History for KLYH - January, 2013

Change the Weather History Date:

Saturday, January 12, 2013

  Actual Average Record
Temperature  
Mean Temperature 54 °F 35 °F  
Max Temperature 70 °F 45 °F 70 °F (2013)
Min Temperature 37 °F 25 °F 3 °F (1982)
Degree Days  
Heating Degree Days 11 30  
Month to date heating degree days 289 360  
Since 1 July heating degree days 1927 2105  
Cooling Degree Days 0 0  
Month to date cooling degree days 0 0  
Year to date cooling degree days 0 0  
Growing Degree Days 3 (Base 50)    
Moisture  
Dew Point 47 °F    
Average Humidity 83    
Maximum Humidity 100    
Minimum Humidity 66    
Precipitation  
Precipitation T in 0.11 in 0.86 in (1948)
Month to date precipitation 0.36 1.18  
Year to date precipitation 0.36 1.18  
Snow  
Snow 0.00 in - - ()
Month to date snowfall 0.0  
Since 1 July snowfall T  
Snow Depth 0.00 in    
Sea Level Pressure  
Sea Level Pressure 30.12 in    
Wind  
Wind Speed 2 mph (SSW)    
Max Wind Speed 8 mph    
Max Gust Speed 10 mph    
Visibility 7 miles    
Events Fog    
T = Trace of Precipitation, MM = Missing Value Source: NWS Daily Summary

Daily Weather History Graph

Daily Weather History Graph

Search for Another Location

Airport or City:

Trip Planner

Search our weather history database for the weather conditions in past years. The results will help you decide how hot, cold, wet, or windy it might be!

Date:

Astronomy

Jan. 12, 2013 Rise Set
Actual Time 7:30 AM EST 5:20 PM EST
Civil Twilight 7:02 AM EST 5:48 PM EST
Nautical Twilight 6:29 AM EST 6:20 PM EST
Astronomical Twilight 5:58 AM EST 6:52 PM EST
Moon 7:50 AM EST (1/12) 6:44 PM EST (1/12)
Length of Visible Light 10h 46m
Length of Day
9h 49m
New Moon, 1% of the Moon is Illuminated
Jan 12
New Moon
Jan 18
First Quarter
Jan 26
Full
Feb 3
Last Quarter
Feb 10
New

Hourly Weather History & Observations

Time (EST) Temp. Windchill Dew Point Humidity Pressure Visibility Wind Dir Wind Speed Gust Speed Precip Events Conditions
12:02 AM 41.0 °F - 41.0 °F 100% 30.13 in 7.0 mi Calm Calm - N/A   Overcast
12:54 AM 42.1 °F 38.4 °F 42.1 °F 100% 30.13 in 1.8 mi SW 5.8 mph - N/A   Overcast
1:03 AM 41.0 °F 36.4 °F 41.0 °F 100% 30.12 in 1.0 mi SSW 6.9 mph - N/A   Overcast
1:12 AM 41.0 °F 36.4 °F 41.0 °F 100% 30.12 in 0.5 mi SSW 6.9 mph - N/A Fog Fog
1:19 AM 41.0 °F 36.4 °F 41.0 °F 100% 30.12 in 0.5 mi SW 6.9 mph - N/A Fog Fog
1:54 AM 41.0 °F 36.4 °F 41.0 °F 100% 30.12 in 1.0 mi SW 6.9 mph - N/A   Mist
2:02 AM 41.0 °F 37.1 °F 41.0 °F 100% 30.12 in 2.0 mi SW 5.8 mph - N/A   Overcast
2:13 AM 41.0 °F 38.0 °F 41.0 °F 100% 30.12 in 4.0 mi SW 4.6 mph - N/A   Overcast
2:30 AM 41.0 °F 36.4 °F 41.0 °F 100% 30.12 in 9.0 mi SW 6.9 mph - N/A   Scattered Clouds
2:54 AM 41.0 °F - 41.0 °F 100% 30.12 in 9.0 mi Calm Calm - N/A   Clear
3:54 AM 39.0 °F 36.8 °F 39.0 °F 100% 30.12 in 2.5 mi South 3.5 mph - N/A   Clear
4:06 AM 39.2 °F - 39.2 °F 100% 30.10 in 3.0 mi Calm Calm - N/A   Clear
4:11 AM 39.2 °F - 39.2 °F 100% 30.10 in 1.8 mi Calm Calm - N/A   Clear
4:19 AM 39.2 °F - 39.2 °F 100% 30.10 in 1.0 mi Calm Calm - N/A   Clear
4:27 AM 39.2 °F - 39.2 °F 100% 30.11 in 2.0 mi Calm Calm - N/A   Clear
4:35 AM 39.2 °F 35.9 °F 39.2 °F 100% 30.11 in 7.0 mi SW 4.6 mph - N/A   Clear
4:54 AM 39.0 °F 36.8 °F 39.0 °F 100% 30.12 in 5.0 mi South 3.5 mph - N/A   Clear
5:54 AM 37.9 °F - 37.9 °F 100% 30.12 in 4.0 mi Calm Calm - N/A   Clear
6:54 AM 41.0 °F - 41.0 °F 100% 30.14 in 6.0 mi Calm Calm - N/A   Mostly Cloudy
7:54 AM 41.0 °F - 41.0 °F 100% 30.14 in 4.0 mi Calm Calm - N/A   Partly Cloudy
8:54 AM 46.9 °F - 46.0 °F 97% 30.16 in 10.0 mi Calm Calm - N/A   Overcast
9:54 AM 50.0 °F - 48.0 °F 93% 30.16 in 10.0 mi Calm Calm - N/A   Overcast
10:54 AM 57.0 °F - 52.0 °F 83% 30.16 in 10.0 mi South 3.5 mph - N/A   Clear
11:54 AM 59.0 °F - 52.0 °F 78% 30.15 in 10.0 mi Calm Calm - N/A   Overcast
12:54 PM 63.0 °F - 54.0 °F 72% 30.12 in 10.0 mi Calm Calm - 0.00 in   Scattered Clouds
1:54 PM 66.0 °F - 55.9 °F 70% 30.11 in 10.0 mi South 3.5 mph - N/A   Mostly Cloudy
2:54 PM 69.1 °F - 57.0 °F 65% 30.10 in 10.0 mi South 4.6 mph - N/A   Clear
3:54 PM 69.1 °F - 57.9 °F 68% 30.11 in 10.0 mi Calm Calm - N/A   Clear
4:54 PM 66.9 °F - 57.9 °F 73% 30.11 in 10.0 mi South 5.8 mph - N/A   Clear
5:54 PM 61.0 °F - 55.9 °F 83% 30.13 in 10.0 mi SSE 4.6 mph - N/A   Clear
6:54 PM 57.9 °F - 55.0 °F 90% 30.12 in 10.0 mi Calm Calm - N/A   Clear
7:54 PM 57.0 °F - 55.0 °F 93% 30.12 in 10.0 mi ESE 3.5 mph - N/A   Clear
8:54 PM 54.0 °F - 54.0 °F 100% 30.12 in 10.0 mi Calm Calm - N/A   Clear
9:54 PM 52.0 °F - 51.1 °F 97% 30.12 in 5.0 mi Calm Calm - N/A   Clear
10:10 PM 53.6 °F - 53.6 °F 100% 30.12 in 10.0 mi North 3.5 mph - N/A   Partly Cloudy
10:22 PM 53.6 °F - 53.6 °F 100% 30.13 in 10.0 mi Calm Calm - N/A   Mostly Cloudy
10:54 PM 54.0 °F - 53.1 °F 97% 30.12 in 10.0 mi Calm Calm - N/A   Overcast
11:38 PM 53.6 °F - 51.8 °F 94% 30.12 in 10.0 mi East 3.5 mph - N/A   Overcast
11:54 PM 53.1 °F - 53.1 °F 100% 30.12 in 9.0 mi Calm Calm - N/A   Overcast